Location: Old Broadwell Mill Observatory
(33.8015°N, 85.8137°W)
Time: 22:32:44
(UTC-06:00)

Amateur Radio Satellites - All Passes

Search period start: 22 November 2014 22:02
Search period end: 23 November 2014 22:02
Location: Old Broadwell Mill Observatory, 33.8015°N, 85.8137°W

Satellite Date Start Highest point End Downlink Frequencies (MHz)
Time Altitude Azimuth
HUMSAT D 22 Nov 22:08:48 22:12:39 36° 262° (W) 22:16:29 437.325/437.525
AISAT 22 Nov 22:10:30 22:14:35 34° 262° (W) 22:18:41 437.250
VERMONT LUNAR 22 Nov 22:15:23 22:17:30 15° 219° (SW) 22:19:36 437.305
RS-15 22 Nov 22:18:29 22:23:04 13° 21° (NNE) 22:27:42 29.354- 29.394
50 SAT 22 Nov 22:22:05 22:25:38 29° 263° (W) 22:29:11 437.505
TIGRISAT 22 Nov 22:23:09 22:27:34 81° 102° (ESE) 22:32:04 435.000
POLYITAN 1 22 Nov 22:25:31 22:29:41 58° 101° (E) 22:33:50 437.675
QB50P2 22 Nov 22:29:01 22:33:13 65° 101° (ESE) 22:37:25 145.880/145.840
UNISAT 6 22 Nov 22:34:46 22:39:11 72° 284° (WNW) 22:43:41 437.425
CUBEBUG 1 22 Nov 22:36:39 22:41:00 53° 260° (W) 22:45:21 437.445
DUCHIFAT 1 22 Nov 22:37:28 22:41:41 82° 102° (ESE) 22:45:53 145.980
FUNcube-1 22 Nov 22:37:37 22:38:35 11° 267° (W) 22:39:33 145.935
SPROUT 22 Nov 22:39:46 22:43:35 31° 72° (ENE) 22:47:23 437.525
TISAT 1 22 Nov 22:41:04 22:45:02 38° 73° (ENE) 22:48:59 437.305
NANOSAT C BR1 22 Nov 22:56:20 23:00:29 57° 285° (WNW) 23:04:35 145.865
AUBIESAT-1 22 Nov 23:02:34 23:05:10 17° 62° (ENE) 23:07:54 437.475
ANTELSAT 22 Nov 23:03:27 23:07:26 33° 288° (WNW) 23:11:28 437.575/2403.000
M-CUBED/EXP-1 PRIME 22 Nov 23:04:55 23:07:47 20° 63° (ENE) 23:10:50 437.505
QB50P1 22 Nov 23:05:51 23:09:51 43° 286° (WNW) 23:13:49 145.935-145.965
ESTCUBE 1 22 Nov 23:09:24 23:12:56 22° 264° (W) 23:16:30 437.505/2401.250
ISS 22 Nov 23:22:15 23:25:25 49° 133° (SE) 23:28:37 145.825
ITUPSAT 1 22 Nov 23:26:07 23:29:15 18° 67° (ENE) 23:32:25 437.325
POPSAT HIP 1 22 Nov 23:30:45 23:34:02 22° 290° (WNW) 23:37:19 437.405
BUGSAT 1 22 Nov 23:36:01 23:39:13 22° 290° (WNW) 23:42:23 437.445
SWISSCUBE 22 Nov 23:37:35 23:41:31 26° 69° (ENE) 23:45:27 437.505
CUSAT 1 22 Nov 23:54:44 23:59:19 73° 82° (E) 00:05:32 437.405
DANDE 23 Nov 00:04:59 00:09:25 77° 82° (E) 00:15:28 436.750
BEESAT 23 Nov 00:08:38 00:13:16 51° 74° (ENE) 00:17:55 436.000
SPROUT 23 Nov 00:16:43 00:19:41 18° 265° (W) 00:22:38 437.525
TISAT 1 23 Nov 00:18:38 00:20:58 14° 266° (W) 00:23:18 437.305
RS-15 23 Nov 00:29:09 00:39:41 43° 51° (NE) 00:50:34 29.354- 29.394
Oscar 19 23 Nov 00:35:40 00:40:13 31° 97° (E) 00:44:46 437.125/150
AUBIESAT-1 23 Nov 00:36:28 00:39:52 31° 259° (W) 00:43:34 437.475
M-CUBED/EXP-1 PRIME 23 Nov 00:39:27 00:42:39 25° 260° (W) 00:46:06 437.505
YUBILEINY 23 Nov 00:39:39 00:43:06 13° 78° (ENE) 00:46:32 435.215
JUGNU 23 Nov 00:41:21 00:45:14 18° 171° (S) 00:49:09 437.505
SRMSAT 23 Nov 00:47:05 00:49:13 12° 164° (SSE) 00:51:20 437.500
STARS 23 Nov 00:59:37 01:03:02 22° 70° (ENE) 01:06:27 437.465
ISS 23 Nov 01:00:09 01:02:16 16° 329° (NNW) 01:04:24 145.825
ITUPSAT 1 23 Nov 01:02:16 01:06:47 41° 261° (W) 01:11:20 437.325
MaSat-1 23 Nov 01:06:39 01:08:55 49° 67° (ENE) 01:11:17 437.345
SWISSCUBE 23 Nov 01:15:11 01:19:14 27° 263° (W) 01:23:19 437.505
ITAMSAT 1 23 Nov 01:20:56 01:25:32 32° 98° (E) 01:30:06 435.822/435.867
KKS-1 23 Nov 01:31:42 01:36:10 83° 77° (ENE) 01:40:38 437.445
Gurwin Techsat 1B 23 Nov 01:33:08 01:37:21 24° 96° (E) 01:41:32 435.225
BEESAT 23 Nov 01:49:08 01:51:21 13° 267° (W) 01:53:34 436.000
Oscar 19 23 Nov 02:15:11 02:19:23 26° 291° (WNW) 02:23:35 437.125/150
JUGNU 23 Nov 02:29:18 02:33:37 21° 182° (S) 02:37:57 437.505
YUBILEINY 23 Nov 02:29:39 02:38:29 85° 94° (E) 02:47:18 435.215
SRMSAT 23 Nov 02:33:33 02:37:42 19° 174° (S) 02:41:50 437.500
STARS 23 Nov 02:35:39 02:39:21 26° 263° (W) 02:43:04 437.465
AO-7 23 Nov 02:39:10 02:44:58 20° 95° (E) 02:50:44 29.400- 29.500
RS-15 23 Nov 02:41:25 02:52:13 53° 250° (WSW) 03:03:30 29.354- 29.394
HORYU 2 23 Nov 02:42:16 02:46:39 52° 100° (E) 02:51:02 437.375
ITAMSAT 1 23 Nov 03:00:40 03:04:50 25° 292° (WNW) 03:08:59 435.822/435.867
Gurwin Techsat 1B 23 Nov 03:12:32 03:17:18 35° 289° (WNW) 03:22:03 435.225
SO-50 23 Nov 03:36:04 03:40:27 62° 116° (ESE) 03:45:00 436.795
MOZHAYETS 4 23 Nov 03:48:34 03:53:04 60° 75° (ENE) 03:57:36
JUGNU 23 Nov 04:18:33 04:21:59 16° 192° (SSW) 04:25:25 437.505
HORYU 2 23 Nov 04:21:00 04:22:50 12° 294° (WNW) 04:24:41 437.375
SRMSAT 23 Nov 04:21:58 04:26:14 20° 184° (S) 04:30:30 437.500
BEESAT 2 23 Nov 04:28:00 04:28:46 10° 47° (NE) 04:29:32 435.950
AO-7 23 Nov 04:29:57 04:38:17 72° 290° (WNW) 04:46:35 29.400- 29.500
YUBILEINY 23 Nov 04:31:04 04:36:16 17° 293° (WNW) 04:41:30 435.215
STRAND 1 23 Nov 04:34:05 04:36:37 14° 64° (ENE) 04:39:09 437.568
PRISM 23 Nov 04:37:21 04:41:12 36° 72° (ENE) 04:45:04 437.425
JAS-2 23 Nov 04:41:16 04:48:14 57° 99° (E) 04:54:21 435.910
PCSat 23 Nov 04:43:45 04:48:36 32° 57° (ENE) 04:53:25 145.827
O/OREOS (USA 219) 23 Nov 05:02:22 05:05:30 19° 101° (E) 05:08:39 437.305
Cubesat XI-IV 23 Nov 05:13:41 05:18:05 26° 96° (E) 05:22:27 437.490
SO-50 23 Nov 05:19:06 05:21:26 14° 313° (NW) 05:23:48 436.795
CUBESAT XI-V 23 Nov 05:20:40 05:25:02 39° 73° (ENE) 05:29:26 437.345
BEESAT 3 23 Nov 05:50:36 05:54:48 89° 62° (ENE) 05:58:55 437.485
ISS 23 Nov 05:54:51 05:56:33 13° 29° (NNE) 05:58:15 145.825
CUTE-I 23 Nov 05:55:21 06:00:39 68° 102° (ESE) 06:05:54 437.470
BEESAT 2 23 Nov 06:03:21 06:07:32 73° 243° (WSW) 06:11:39 435.950
STRAND 1 23 Nov 06:10:09 06:15:14 61° 259° (W) 06:20:20 437.568
SRMSAT 23 Nov 06:11:51 06:14:44 14° 194° (SSW) 06:17:36 437.500
PRISM 23 Nov 06:14:35 06:16:51 14° 266° (W) 06:19:08 437.425
AIST 1 23 Nov 06:22:29 06:26:29 34° 79° (E) 06:30:25
AIST 2 23 Nov 06:23:16 06:27:34 87° 62° (ENE) 06:31:48 435.215
AO-7 23 Nov 06:26:04 06:29:36 13° 308° (NW) 06:33:08 29.400- 29.500
PCSat 23 Nov 06:27:17 06:31:52 28° 253° (WSW) 06:36:25 145.827
JAS-2 23 Nov 06:27:22 06:32:35 22° 298° (WNW) 06:37:23 435.910
GONETS M04 23 Nov 06:28:10 06:32:33 15° 79° (ENE) 06:36:56
O/OREOS (USA 219) 23 Nov 06:40:38 06:44:38 31° 295° (WNW) 06:48:38 437.305
Cubesat XI-IV 23 Nov 06:53:27 06:58:07 32° 290° (WNW) 07:02:46 437.490
CUBESAT XI-V 23 Nov 06:59:35 07:02:35 17° 266° (W) 07:05:36 437.345
ISS 23 Nov 07:30:14 07:33:31 69° 226° (SW) 07:36:48 145.825
CUTE-I 23 Nov 07:37:46 07:40:04 13° 297° (WNW) 07:42:22 437.470
SEEDS 23 Nov 07:43:13 07:45:17 13° 93° (E) 07:47:21 437.485
AIST 1 23 Nov 08:01:16 08:03:47 15° 273° (W) 08:06:16
CANX-2 23 Nov 08:05:12 08:09:03 32° 98° (E) 08:12:55 2200.000
AAUSAT CUBESAT 2 23 Nov 08:05:43 08:08:40 18° 95° (E) 08:11:37 437.432
DOVE 4 23 Nov 08:09:00 08:11:23 15° 94° (E) 08:13:48 437.250
COMPASS 1 23 Nov 08:18:08 08:21:52 30° 97° (E) 08:25:36 437.405
GONETS M04 23 Nov 08:19:16 08:28:03 88° 275° (W) 08:36:57
HO-68 23 Nov 08:20:23 08:27:22 54° 102° (ESE) 08:34:18 435.675
DELFI C3 23 Nov 08:27:47 08:29:39 13° 93° (E) 08:31:31 145.870
GOMX 1 23 Nov 08:35:11 08:39:09 43° 99° (E) 08:43:12 467.674
CUTE 1.7 & AOD 2 23 Nov 08:39:56 08:44:14 81° 101° (ESE) 08:48:32 437.475
POPSAT HIP 1 23 Nov 08:46:18 08:47:55 12° 66° (ENE) 08:49:32 437.405
BRITE-PL 23 Nov 08:47:47 08:51:56 87° 282° (WNW) 08:56:08 437.365/2234.400
BUGSAT 1 23 Nov 08:49:49 08:50:44 11° 66° (ENE) 08:51:39 437.445
FUNcube-1 23 Nov 08:52:25 08:54:10 12° 93° (E) 08:55:55 145.935
UKube-1 23 Nov 08:53:01 08:56:46 28° 97° (E) 09:00:28 .
CUBEBUG 2 23 Nov 09:02:18 09:05:44 24° 97° (E) 09:09:13 437.445
Oscar 11 23 Nov 09:06:19 09:10:32 48° 100° (E) 09:14:44 145.826/435.025
CINEMA 3 23 Nov 09:06:44 09:10:46 44° 99° (E) 09:14:55 145.822/145.860
UWE-3 23 Nov 09:09:04 09:12:32 24° 97° (E) 09:16:04 435.000/436.395/437.385
POLYITAN 1 23 Nov 09:15:40 09:19:17 27° 71° (ENE) 09:22:54 437.675
SEEDS 23 Nov 09:17:15 09:21:15 40° 286° (WNW) 09:25:15 437.485
TIGRISAT 23 Nov 09:18:40 09:22:43 42° 74° (ENE) 09:26:44 435.000
QB50P2 23 Nov 09:18:51 09:22:35 30° 72° (ENE) 09:26:17 145.880/145.840
DX 1 23 Nov 09:24:57 09:29:18 72° 102° (ESE) 09:33:36 434.975-435.025
DUCHIFAT 1 23 Nov 09:26:45 09:30:39 36° 73° (ENE) 09:34:34 145.980
UNISAT 6 23 Nov 09:30:21 09:34:35 61° 75° (ENE) 09:38:48 437.425
SHINDAISAT 23 Nov 09:32:33 09:33:23 13° 114° (ESE) 09:34:13 437.305
AAUSAT CUBESAT 2 23 Nov 09:40:41 09:44:20 29° 288° (WNW) 09:47:59 437.432
VELOX 1 23 Nov 09:41:27 09:45:20 30° 98° (E) 09:49:12 145.980
CANX-2 23 Nov 09:41:54 09:44:43 17° 291° (WNW) 09:47:33 2200.000
NANOSAT C BR1 23 Nov 09:45:17 09:49:30 63° 76° (ENE) 09:53:43 145.865
DOVE 4 23 Nov 09:45:29 09:49:15 34° 287° (WNW) 09:53:05 437.250
ZACube-1 23 Nov 09:50:33 09:54:45 68° 101° (E) 09:59:03 437.345
COMPASS 1 23 Nov 09:54:27 09:57:21 18° 291° (WNW) 10:00:16 437.405
QB50P1 23 Nov 09:54:40 09:58:57 83° 77° (ENE) 10:03:13 145.935-145.965
HUMSAT D 23 Nov 09:57:08 10:01:08 45° 99° (E) 10:05:10 437.325/437.525
ANTELSAT 23 Nov 09:58:45 10:02:59 58° 259° (W) 10:07:12 437.575/2403.000
DELFI C3 23 Nov 10:01:14 10:05:05 39° 286° (WNW) 10:08:56 145.870
AISAT 23 Nov 10:05:22 10:09:45 61° 101° (E) 10:14:06 437.250
50 SAT 23 Nov 10:06:33 10:10:29 48° 100° (E) 10:14:26 437.505
HO-68 23 Nov 10:08:59 10:14:36 26° 297° (WNW) 10:20:12 435.675
GOMX 1 23 Nov 10:15:22 10:16:55 12° 293° (WNW) 10:18:28 467.674
POPSAT HIP 1 23 Nov 10:19:14 10:23:22 48° 260° (W) 10:27:30 437.405
BUGSAT 1 23 Nov 10:21:32 10:25:43 55° 260° (W) 10:29:54 437.445
GONETS M04 23 Nov 10:21:33 10:26:04 15° 294° (WNW) 10:30:37
FUNcube-1 23 Nov 10:26:40 10:30:40 43° 286° (WNW) 10:34:44 145.935
UKube-1 23 Nov 10:29:31 10:32:43 20° 291° (WNW) 10:35:54 .
CUBEBUG 1 23 Nov 10:30:02 10:34:05 37° 98° (E) 10:38:06 437.445
CUBEBUG 2 23 Nov 10:39:00 10:42:19 23° 289° (WNW) 10:45:41 437.445
Oscar 11 23 Nov 10:44:28 10:46:14 12° 293° (WNW) 10:48:01 145.826/435.025
UWE-3 23 Nov 10:45:41 10:48:57 22° 289° (WNW) 10:52:17 435.000/436.395/437.385
CINEMA 3 23 Nov 10:45:52 10:47:37 12° 292° (WNW) 10:49:22 145.822/145.860
POLYITAN 1 23 Nov 10:52:04 10:55:12 20° 265° (W) 10:58:20 437.675
QB50P2 23 Nov 10:55:33 10:58:30 18° 265° (W) 11:01:27 145.880/145.840
TIGRISAT 23 Nov 10:57:52 10:59:38 12° 267° (W) 11:01:25 435.000
DUCHIFAT 1 23 Nov 11:04:12 11:06:37 15° 266° (W) 11:09:02 145.980
ESTCUBE 1 23 Nov 11:05:10 11:09:43 78° 284° (WNW) 11:14:13 437.505/2401.250
VELOX 1 23 Nov 11:18:31 11:21:42 20° 291° (WNW) 11:24:51 145.980
HUMSAT D 23 Nov 11:34:58 11:36:32 12° 293° (WNW) 11:38:07 437.325/437.525
50 SAT 23 Nov 11:44:28 11:45:21 11° 293° (WNW) 11:46:15 437.505
AISAT 23 Nov 11:45:14 11:45:49 10° 295° (WNW) 11:46:24 437.250
Oscar 19 23 Nov 11:48:57 11:53:22 31° 70° (ENE) 11:57:48 437.125/150
TISAT 1 23 Nov 12:05:39 12:09:49 64° 284° (WNW) 12:13:58 437.305
SPROUT 23 Nov 12:06:02 12:10:19 75° 284° (WNW) 12:14:34 437.525
CUBEBUG 1 23 Nov 12:07:31 12:10:07 16° 292° (WNW) 12:12:43 437.445
SO-50 23 Nov 12:11:47 12:15:36 22° 52° (NE) 12:19:25 436.795
BEESAT 23 Nov 12:14:06 12:17:24 18° 95° (E) 12:20:40 436.000
AUBIESAT-1 23 Nov 12:22:23 12:26:45 31° 101° (E) 12:30:59 437.475
M-CUBED/EXP-1 PRIME 23 Nov 12:25:20 12:29:54 37° 102° (ESE) 12:34:21 437.505
ITAMSAT 1 23 Nov 12:35:09 12:39:48 34° 70° (ENE) 12:44:27 435.822/435.867
YUBILEINY 23 Nov 12:45:27 12:53:11 34° 75° (ENE) 13:00:50 435.215
Gurwin Techsat 1B 23 Nov 12:50:32 12:54:52 26° 69° (ENE) 12:59:13 435.225
CUSAT 1 23 Nov 13:05:56 13:08:51 42° 279° (W) 13:11:25 437.405
ITUPSAT 1 23 Nov 13:06:43 13:11:31 71° 102° (ESE) 13:16:17 437.325
SWISSCUBE 23 Nov 13:18:51 13:23:39 77° 284° (WNW) 13:28:25 437.505
DANDE 23 Nov 13:18:56 13:21:54 35° 279° (W) 13:24:27 436.750
VERMONT LUNAR 23 Nov 13:25:23 13:27:34 15° 141° (SE) 13:29:45 437.305
KKS-1 23 Nov 13:27:49 13:31:15 22° 96° (E) 13:34:39 437.445
Oscar 19 23 Nov 13:28:29 13:32:39 25° 264° (W) 13:36:50 437.125/150
AO-7 23 Nov 13:34:46 13:40:34 22° 57° (ENE) 13:46:22 29.400- 29.500
HORYU 2 23 Nov 13:37:32 13:41:22 30° 71° (ENE) 13:45:13 437.375
BEESAT 23 Nov 13:50:55 13:55:19 37° 288° (WNW) 13:59:41 436.000
SO-50 23 Nov 13:51:43 13:56:16 39° 247° (WSW) 14:00:48 436.795
AUBIESAT-1 23 Nov 13:57:30 14:01:31 26° 295° (WNW) 14:05:28 437.475
M-CUBED/EXP-1 PRIME 23 Nov 14:00:52 14:04:38 22° 296° (WNW) 14:08:22 437.505
ITAMSAT 1 23 Nov 14:15:06 14:19:16 24° 264° (W) 14:23:27 435.822/435.867
STARS 23 Nov 14:28:54 14:33:17 78° 102° (ESE) 14:37:40 437.465
Gurwin Techsat 1B 23 Nov 14:29:57 14:34:39 32° 263° (W) 14:39:23 435.225
MaSat-1 23 Nov 14:32:10 14:34:54 26° 109° (ESE) 14:37:26 437.345
PHONESAT 2.4 23 Nov 14:39:27 14:42:58 42° 148° (SSE) 14:46:30 2401.200-2431.200
YUBILEINY 23 Nov 14:41:57 14:49:59 44° 272° (W) 14:57:59 435.215
ITUPSAT 1 23 Nov 14:47:52 14:48:45 11° 296° (WNW) 14:49:38 437.325
RS-15 23 Nov 14:48:50 14:58:29 37° 106° (ESE) 15:07:59 29.354- 29.394
JAS-2 23 Nov 14:49:13 14:54:21 20° 61° (ENE) 14:59:36 435.910
VERMONT LUNAR 23 Nov 15:02:05 15:05:42 90° 132° (SE) 15:09:20 437.305
KKS-1 23 Nov 15:04:06 15:07:49 27° 289° (WNW) 15:11:32 437.445
HORYU 2 23 Nov 15:14:50 15:18:02 20° 265° (W) 15:21:15 437.375
O/OREOS (USA 219) 23 Nov 15:15:33 15:18:51 20° 62° (ENE) 15:22:08 437.305
AO-7 23 Nov 15:24:12 15:32:27 76° 254° (WSW) 15:40:48 29.400- 29.500
MOZHAYETS 4 23 Nov 15:48:44 15:52:08 20° 95° (E) 15:55:31
PHONESAT 2.4 23 Nov 16:18:12 16:21:47 44° 343° (NNW) 16:25:22 2401.200-2431.200
JAS-2 23 Nov 16:31:00 16:38:23 78° 258° (WSW) 16:46:17 435.910
Cubesat XI-IV 23 Nov 16:31:56 16:36:34 30° 69° (ENE) 16:41:12 437.490
VERMONT LUNAR 23 Nov 16:41:11 16:44:28 31° 351° (N) 16:47:44 437.305
O/OREOS (USA 219) 23 Nov 16:54:20 16:58:14 30° 257° (WSW) 17:02:09 437.305
RS-15 23 Nov 16:59:38 17:10:17 55° 305° (NW) 17:20:58 29.354- 29.394
CUTE-I 23 Nov 17:13:16 17:18:37 77° 75° (ENE) 17:23:59 437.470
CUBESAT XI-V 23 Nov 17:23:17 17:25:32 13° 92° (E) 17:27:46 437.345
AO-7 23 Nov 17:24:55 17:26:17 10° 270° (W) 17:27:40 29.400- 29.500
MOZHAYETS 4 23 Nov 17:25:14 17:29:22 32° 288° (WNW) 17:33:29
PHONESAT 2.4 23 Nov 17:57:50 18:01:05 28° 0° (N) 18:04:20 2401.200-2431.200
PRISM 23 Nov 17:59:38 18:03:52 73° 284° (WNW) 18:08:03 437.425
Cubesat XI-IV 23 Nov 18:12:00 18:16:33 28° 263° (W) 18:21:08 437.490
VERMONT LUNAR 23 Nov 18:20:17 18:23:32 30° 8° (N) 18:26:46 437.305
JAS-2 23 Nov 18:22:24 18:24:26 11° 274° (W) 18:26:30 435.910
STRAND 1 23 Nov 18:24:44 18:29:48 63° 102° (ESE) 18:34:50 437.568
GONETS M04 23 Nov 18:34:58 18:43:05 39° 76° (ENE) 18:51:04
HO-68 23 Nov 18:45:35 18:51:23 27° 64° (ENE) 18:57:11 435.675
AIST 1 23 Nov 18:48:25 18:51:59 25° 89° (E) 18:55:35
CANX-2 23 Nov 18:56:09 18:58:33 15° 68° (ENE) 19:00:57 2200.000
CUTE-I 23 Nov 18:58:40 18:59:09 10° 269° (W) 18:59:38 437.470
CUBESAT XI-V 23 Nov 18:58:43 19:03:12 47° 286° (WNW) 19:07:37 437.345
COMPASS 1 23 Nov 19:08:00 19:10:00 13° 67° (ENE) 19:12:00 437.405
DOVE 4 23 Nov 19:12:34 19:14:15 12° 67° (ENE) 19:15:54 437.250
RS-15 23 Nov 19:20:02 19:25:55 15° 333° (NNW) 19:31:52 29.354- 29.394
PCSat 23 Nov 19:21:00 19:26:20 66° 113° (ESE) 19:31:43 145.827
CUTE 1.7 & AOD 2 23 Nov 19:29:34 19:33:22 34° 73° (ENE) 19:37:11 437.475
PHONESAT 2.4 23 Nov 19:36:48 19:40:23 46° 17° (NNE) 19:43:58 2401.200-2431.200
GOMX 1 23 Nov 19:39:32 19:43:59 34° 73° (ENE) 19:48:09 467.674
BEESAT 3 23 Nov 19:42:04 19:45:56 44° 114° (ESE) 19:49:53 437.485
UKube-1 23 Nov 19:45:41 19:48:19 16° 67° (ENE) 19:50:57 .
BRITE-PL 23 Nov 19:54:06 19:59:19 71° 76° (ENE) 20:04:08 437.365/2234.400
BEESAT 2 23 Nov 19:55:12 19:59:12 57° 115° (ESE) 20:03:17 435.950
Oscar 11 23 Nov 19:58:05 20:01:30 23° 70° (ENE) 20:04:54 145.826/435.025
VERMONT LUNAR 23 Nov 19:58:42 20:02:20 80° 24° (NNE) 20:05:57 437.305
CUBEBUG 2 23 Nov 19:58:52 20:00:55 13° 68° (ENE) 20:02:56 437.445
UWE-3 23 Nov 20:04:37 20:06:36 13° 68° (ENE) 20:08:35 435.000/436.395/437.385
CINEMA 3 23 Nov 20:05:29 20:09:15 27° 72° (ENE) 20:12:54 145.822/145.860
SEEDS 23 Nov 20:05:31 20:09:42 84° 77° (ENE) 20:13:54 437.485
STRAND 1 23 Nov 20:06:07 20:08:23 13° 296° (WNW) 20:10:39 437.568
DX 1 23 Nov 20:17:00 20:21:02 37° 72° (ENE) 20:25:05 434.975-435.025
AIST 2 23 Nov 20:18:05 20:22:07 48° 114° (ESE) 20:26:14 435.215
AIST 1 23 Nov 20:26:12 20:29:33 21° 284° (WNW) 20:32:56
AAUSAT CUBESAT 2 23 Nov 20:27:41 20:31:48 70° 259° (W) 20:35:58 437.432
CANX-2 23 Nov 20:30:17 20:34:09 36° 262° (W) 20:38:04 2200.000
HO-68 23 Nov 20:31:46 20:38:40 50° 259° (W) 20:45:38 435.675
GONETS M04 23 Nov 20:31:48 20:39:45 39° 273° (W) 20:47:38
VELOX 1 23 Nov 20:36:34 20:39:38 18° 68° (ENE) 20:42:41 145.980
COMPASS 1 23 Nov 20:41:26 20:45:21 40° 261° (W) 20:49:17 437.405
ZACube-1 23 Nov 20:43:29 20:47:16 32° 73° (ENE) 20:51:01 437.345
DELFI C3 23 Nov 20:45:54 20:49:56 75° 77° (ENE) 20:54:01 145.870
HUMSAT D 23 Nov 20:46:46 20:49:49 20° 70° (ENE) 20:52:51 437.325/437.525
DOVE 4 23 Nov 20:46:54 20:51:36 56° 259° (W) 20:56:03 437.250
50 SAT 23 Nov 20:52:51 20:55:45 19° 70° (ENE) 20:58:38 437.505
AISAT 23 Nov 21:00:04 21:04:08 34° 72° (ENE) 21:08:11 437.250
CUTE 1.7 & AOD 2 23 Nov 21:06:54 21:09:22 15° 266° (W) 21:11:51 437.475
PCSat 23 Nov 21:06:56 21:10:13 16° 309° (NW) 21:13:30 145.827
PHONESAT 2.4 23 Nov 21:15:41 21:19:10 39° 212° (SSW) 21:22:38 2401.200-2431.200
TIGRISAT 23 Nov 21:16:07 21:17:59 12° 93° (E) 21:19:53 435.000
GOMX 1 23 Nov 21:18:29 21:22:05 20° 264° (W) 21:25:31 467.674
FUNcube-1 23 Nov 21:18:44 21:23:00 89° 82° (E) 21:27:12 145.935
UKube-1 23 Nov 21:20:06 21:24:08 37° 261° (W) 21:28:12 .
BEESAT 3 23 Nov 21:22:00 21:24:23 15° 310° (NW) 21:26:48 437.485
CUBEBUG 1 23 Nov 21:23:22 21:26:40 21° 69° (ENE) 21:29:58 437.445
UNISAT 6 23 Nov 21:27:17 21:30:19 18° 95° (E) 21:33:23 437.425
CUBEBUG 2 23 Nov 21:33:08 21:37:16 42° 261° (W) 21:41:18 437.445
Oscar 11 23 Nov 21:34:05 21:37:32 24° 264° (W) 21:41:00 145.826/435.025
BEESAT 2 23 Nov 21:36:07 21:37:51 12° 312° (NW) 21:39:35 435.950
NANOSAT C BR1 23 Nov 21:36:26 21:38:36 14° 94° (E) 21:40:46 145.865
VERMONT LUNAR 23 Nov 21:38:01 21:40:31 18° 218° (SW) 21:43:02 437.305
UWE-3 23 Nov 21:38:42 21:42:47 42° 261° (W) 21:46:48 435.000/436.395/437.385
RS-15 23 Nov 21:42:58 21:45:39 11° 13° (NNE) 21:48:21 29.354- 29.394
CINEMA 3 23 Nov 21:42:59 21:46:24 21° 264° (W) 21:49:43 145.822/145.860
QB50P1 23 Nov 21:45:19 21:48:13 18° 95° (E) 21:51:07 145.935-145.965
DX 1 23 Nov 21:54:49 21:57:22 15° 266° (W) 21:59:56 434.975-435.025
